Weather History for Hill City, KS

Change the Weather History Date:

Tuesday, July 29, 2014

  Actual Average Record
Temperature  
Mean Temperature 75 °F 79 °F  
Max Temperature 90 °F 92 °F 108 °F (1917)
Min Temperature 59 °F 66 °F 51 °F (1965)
Cooling Degree Days 9    
Growing Degree Days 24 (Base 50)    
Moisture  
Dew Point 57 °F    
Average Humidity 58    
Maximum Humidity 83    
Minimum Humidity 34    
Precipitation  
Precipitation 0.00 in 0.13 in 1.51 in (2008)
Month to date precipitation 1.80 3.46  
Year to date precipitation 13.67 14.72  
Sea Level Pressure  
Sea Level Pressure 30.10 in    
Wind  
Wind Speed 9 mph (East)    
Max Wind Speed 16 mph    
Max Gust Speed 22 mph    
Visibility 10 miles    
Events      
T = Trace of Precipitation, MM = Missing Value Source: NWS Daily Summary

Daily Weather History Graph

Daily Weather History Graph

Search for Another Location

Airport:

Trip Planner

Search our weather history database for the weather conditions in past years. The results will help you decide how hot, cold, wet, or windy it might be!

Date:

Astronomy

Jul. 29, 2014 Rise Set
Actual Time 6:36 AM CDT 8:54 PM CDT
Civil Twilight 6:06 AM CDT 9:24 PM CDT
Nautical Twilight 5:29 AM CDT 10:01 PM CDT
Astronomical Twilight 4:48 AM CDT 10:42 PM CDT
Moon 9:13 AM CDT (7/29) 10:09 PM CDT (7/29)
Length of Visible Light 15h 18m
Length of Day
14h 17m
Waxing Crescent, 7% of the Moon is Illuminated
Jul 29
Waxing Crescent
Aug 3
First Quarter
Aug 10
Full
Aug 17
Last Quarter
Aug 25
New

Hourly Weather History & Observations

Time (CDT) Temp. Heat Index Dew Point Humidity Pressure Visibility Wind Dir Wind Speed Gust Speed Precip Events Conditions
12:53 AM 69.1 °F - 57.9 °F 68% 30.16 in 10.0 mi East 9.2 mph - N/A   Clear
1:53 AM 66.9 °F - 57.0 °F 70% 30.15 in 10.0 mi East 8.1 mph - N/A   Clear
2:53 AM 64.9 °F - 55.9 °F 73% 30.15 in 10.0 mi East 8.1 mph - N/A   Clear
3:53 AM 63.0 °F - 55.9 °F 78% 30.14 in 10.0 mi East 6.9 mph - N/A   Clear
4:53 AM 61.0 °F - 55.0 °F 81% 30.14 in 10.0 mi East 5.8 mph - N/A   Clear
5:53 AM 60.1 °F - 55.0 °F 83% 30.14 in 10.0 mi NE 4.6 mph - N/A   Clear
6:53 AM 60.1 °F - 55.0 °F 83% 30.14 in 10.0 mi East 6.9 mph - N/A   Clear
7:53 AM 64.0 °F - 55.9 °F 75% 30.15 in 10.0 mi East 4.6 mph - N/A   Clear
11:53 AM 82.0 °F 82.0 °F 57.9 °F 44% 30.13 in - SSE 10.4 mph 19.6 mph N/A   Clear
12:53 PM 84.0 °F 83.5 °F 57.9 °F 41% 30.11 in 10.0 mi North - - N/A   Unknown
1:53 PM 84.9 °F 84.4 °F 59.0 °F 41% 30.08 in 10.0 mi Variable 3.5 mph - N/A   Partly Cloudy
3:53 PM 88.0 °F 86.5 °F 55.9 °F 34% 30.04 in 10.0 mi North - - N/A   Partly Cloudy
5:53 PM 87.1 °F 85.9 °F 57.0 °F 36% 30.01 in 10.0 mi East 11.5 mph - N/A   Clear
6:53 PM 84.0 °F 83.3 °F 57.0 °F 40% 30.01 in 10.0 mi East 16.1 mph - N/A   Clear
7:53 PM 81.0 °F 81.0 °F 57.0 °F 44% 30.01 in 10.0 mi East 16.1 mph 21.9 mph N/A   Clear
8:53 PM 78.1 °F - 55.9 °F 46% 30.04 in 10.0 mi East 12.7 mph - N/A   Clear
9:53 PM 77.0 °F - 55.9 °F 48% 30.06 in 10.0 mi ESE 10.4 mph - N/A   Mostly Cloudy
10:53 PM 75.0 °F - 57.0 °F 53% 30.13 in 10.0 mi East 12.7 mph - N/A   Mostly Cloudy
11:53 PM 73.0 °F - 55.9 °F 55% 30.07 in 10.0 mi East 12.7 mph - N/A   Partly Cloudy